When you browse on this site, cookies collect data to enhance your experience and personalize the content and advertising you see.
Visit our Privacy Policy to learn more. By continuing to use the site, you agree to this use of cookies and data.
  • în România
  • Lista ţărilor
  • Pe 7 zile
  • Temperatura apei
  • Hartă satelitară
  • Meteo pe hartă
  • Widget-uri
  • user-avatar
    Intrare

    Meteo pe oră la Stafford

    Astăzi, 22 Ianuarie, Marţi

    Timp Temperatura Precipitaţii Vânt Presiune Umiditate
    00:00 +3°C° 0 mm 5 m/s 745 mmHg 91%
    01:00 +2°C° 0.1 mm 5 m/s 744 mmHg 88%
    02:00 +1°C° 0.1 mm 5 m/s 744 mmHg 86%
    03:00 0°C° 0.1 mm 5 m/s 743 mmHg 83%
    04:00 0°C° 0 mm 5 m/s 743 mmHg 84%
    05:00 0°C° 0 mm 5 m/s 743 mmHg 84%
    06:00 -1°C° 0 mm 5 m/s 743 mmHg 84%
    07:00 -1°C° 0 mm 4 m/s 743 mmHg 85%
    08:00 -1°C° 0 mm 4 m/s 743 mmHg 85%
    09:00 -1°C° 0 mm 4 m/s 743 mmHg 86%
    10:00 0°C° 0 mm 4 m/s 742 mmHg 81%
    11:00 +1°C° 0 mm 4 m/s 742 mmHg 77%
    12:00 +3°C° 0 mm 4 m/s 742 mmHg 72%
    13:00 +3°C° 0.5 mm 4 m/s 741 mmHg 75%
    14:00 +3°C° 0.5 mm 3 m/s 741 mmHg 78%
    15:00 +2°C° 0.5 mm 3 m/s 741 mmHg 80%
    16:00 +2°C° 0.2 mm 3 m/s 741 mmHg 83%
    17:00 +1°C° 0.2 mm 3 m/s 740 mmHg 85%
    18:00 0°C° 0.2 mm 3 m/s 740 mmHg 87%
    19:00 0°C° 0 mm 3 m/s 740 mmHg 88%
    20:00 -1°C° 0 mm 3 m/s 740 mmHg 89%
    21:00 -1°C° 0 mm 3 m/s 740 mmHg 90%
    22:00 -1°C° 0 mm 3 m/s 740 mmHg 90%
    23:00 -1°C° 0 mm 3 m/s 740 mmHg 90%

    Mâine, 23 Ianuarie, Miercuri

    Timp Temperatura Precipitaţii Vânt Presiune Umiditate
    00:00 -1°C° 0 mm 2 m/s 740 mmHg 89%
    01:00 -1°C° 0 mm 3 m/s 740 mmHg 90%
    02:00 -1°C° 0 mm 3 m/s 740 mmHg 90%
    03:00 -1°C° 0 mm 3 m/s 741 mmHg 90%
    04:00 -2°C° 0 mm 3 m/s 741 mmHg 89%
    05:00 -2°C° 0 mm 3 m/s 742 mmHg 89%
    06:00 -2°C° 0 mm 3 m/s 742 mmHg 88%
    07:00 -2°C° 0 mm 3 m/s 743 mmHg 86%
    08:00 -2°C° 0 mm 3 m/s 743 mmHg 85%
    09:00 -2°C° 0 mm 3 m/s 744 mmHg 83%
    10:00 -1°C° 0 mm 3 m/s 744 mmHg 78%
    11:00 -1°C° 0 mm 4 m/s 745 mmHg 73%
    12:00 0°C° 0 mm 4 m/s 746 mmHg 69%
    13:00 0°C° 0 mm 4 m/s 746 mmHg 70%
    14:00 +1°C° 0 mm 3 m/s 746 mmHg 72%
    15:00 +1°C° 0 mm 3 m/s 746 mmHg 73%
    16:00 0°C° 0 mm 3 m/s 747 mmHg 75%
    17:00 -1°C° 0 mm 2 m/s 748 mmHg 77%
    18:00 -2°C° 0 mm 2 m/s 748 mmHg 80%
    19:00 -2°C° 0 mm 2 m/s 749 mmHg 79%
    20:00 -2°C° 0 mm 2 m/s 749 mmHg 78%
    21:00 0°C° 0 mm 1 m/s 750 mmHg 77%
    22:00 0°C° 0 mm 1 m/s 750 mmHg 77%
    23:00 0°C° 0 mm 1 m/s 750 mmHg 76%

    Poimâine, 24 Ianuarie, Joi

    Timp Temperatura Precipitaţii Vânt Presiune Umiditate
    00:00 0°C° 0 mm 1 m/s 751 mmHg 76%
    01:00 0°C° 0 mm 1 m/s 751 mmHg 78%
    02:00 0°C° 0 mm 1 m/s 751 mmHg 80%
    03:00 0°C° 0 mm 1 m/s 752 mmHg 81%
    04:00 0°C° 0 mm 1 m/s 752 mmHg 83%
    05:00 0°C° 0 mm 1 m/s 752 mmHg 84%
    06:00 0°C° 0 mm 1 m/s 752 mmHg 86%
    07:00 +1°C° 0 mm 1 m/s 752 mmHg 86%
    08:00 +1°C° 0 mm 1 m/s 752 mmHg 87%
    09:00 +1°C° 0 mm 1 m/s 753 mmHg 87%
    10:00 +1°C° 0 mm 2 m/s 753 mmHg 86%
    11:00 +2°C° 0 mm 2 m/s 753 mmHg 85%
    12:00 +3°C° 0 mm 2 m/s 753 mmHg 84%
    13:00 +3°C° 0.1 mm 2 m/s 753 mmHg 87%
    14:00 +3°C° 0.1 mm 2 m/s 753 mmHg 89%
    15:00 +2°C° 0.1 mm 3 m/s 752 mmHg 92%
    16:00 +2°C° 0.2 mm 3 m/s 752 mmHg 93%
    17:00 +2°C° 0.2 mm 3 m/s 752 mmHg 95%
    18:00 +2°C° 0.2 mm 3 m/s 752 mmHg 97%
    19:00 +3°C° 0.4 mm 3 m/s 752 mmHg 97%
    20:00 +4°C° 0.4 mm 2 m/s 752 mmHg 97%
    21:00 +5°C° 0.4 mm 2 m/s 752 mmHg 98%
    22:00 +4°C° 0.1 mm 3 m/s 752 mmHg 98%
    23:00 +5°C° 0.1 mm 3 m/s 752 mmHg 98%

    25 Ianuarie, Vineri

    Timp Temperatura Precipitaţii Vânt Presiune Umiditate
    00:00 +5°C° 0.1 mm 3 m/s 752 mmHg 98%
    01:00 +5°C° 0 mm 3 m/s 752 mmHg 97%
    02:00 +5°C° 0 mm 4 m/s 752 mmHg 97%
    03:00 +5°C° 0 mm 4 m/s 752 mmHg 97%
    04:00 +5°C° 0 mm 4 m/s 752 mmHg 97%
    05:00 +5°C° 0 mm 4 m/s 752 mmHg 97%
    06:00 +5°C° 0 mm 4 m/s 752 mmHg 96%
    07:00 +5°C° 0 mm 4 m/s 752 mmHg 96%
    08:00 +4°C° 0 mm 4 m/s 752 mmHg 96%
    09:00 +4°C° 0 mm 4 m/s 752 mmHg 95%
    10:00 +5°C° 0 mm 4 m/s 752 mmHg 92%
    11:00 +6°C° 0 mm 4 m/s 752 mmHg 88%
    12:00 +7°C° 0 mm 5 m/s 752 mmHg 85%
    13:00 +7°C° 0 mm 5 m/s 751 mmHg 84%
    14:00 +7°C° 0 mm 5 m/s 750 mmHg 84%
    15:00 +7°C° 0 mm 4 m/s 750 mmHg 84%
    16:00 +7°C° 0.1 mm 4 m/s 749 mmHg 86%
    17:00 +6°C° 0.1 mm 4 m/s 748 mmHg 89%
    18:00 +6°C° 0.1 mm 4 m/s 748 mmHg 92%
    19:00 +7°C° 0.8 mm 5 m/s 747 mmHg 93%
    20:00 +7°C° 0.8 mm 5 m/s 747 mmHg 93%
    21:00 +8°C° 0.8 mm 6 m/s 746 mmHg 94%
    22:00 +7°C° 0.7 mm 5 m/s 746 mmHg 92%
    23:00 +6°C° 0.7 mm 5 m/s 745 mmHg 91%

    26 Ianuarie, Sâmbătă

    Timp Temperatura Precipitaţii Vânt Presiune Umiditate
    00:00 +5°C° 0.7 mm 5 m/s 745 mmHg 89%
    01:00 +3°C° 0.4 mm 5 m/s 744 mmHg 88%
    02:00 +4°C° 0.4 mm 4 m/s 744 mmHg 87%
    03:00 +3°C° 0.4 mm 4 m/s 744 mmHg 85%
    04:00 +3°C° 0 mm 4 m/s 744 mmHg 86%
    05:00 +3°C° 0 mm 4 m/s 744 mmHg 86%
    06:00 +3°C° 0 mm 4 m/s 744 mmHg 87%
    07:00 +3°C° 0 mm 4 m/s 744 mmHg 86%
    08:00 +3°C° 0 mm 4 m/s 744 mmHg 85%
    09:00 +3°C° 0 mm 4 m/s 745 mmHg 84%
    10:00 +3°C° 0.1 mm 4 m/s 745 mmHg 80%
    11:00 +3°C° 0.1 mm 5 m/s 745 mmHg 76%
    12:00 +3°C° 0.1 mm 6 m/s 745 mmHg 72%
    13:00 +3°C° 0.1 mm 6 m/s 745 mmHg 72%
    14:00 +3°C° 0.1 mm 6 m/s 745 mmHg 72%
    15:00 +3°C° 0.1 mm 5 m/s 745 mmHg 72%
    16:00 +2°C° 0 mm 5 m/s 745 mmHg 76%
    17:00 +1°C° 0 mm 4 m/s 745 mmHg 80%
    18:00 0°C° 0 mm 4 m/s 746 mmHg 84%
    19:00 0°C° 0 mm 4 m/s 746 mmHg 84%
    20:00 0°C° 0 mm 4 m/s 747 mmHg 85%
    21:00 0°C° 0 mm 4 m/s 747 mmHg 85%
    22:00 0°C° 0 mm 4 m/s 748 mmHg 84%
    23:00 -1°C° 0 mm 4 m/s 748 mmHg 83%

    27 Ianuarie, Duminică

    Timp Temperatura Precipitaţii Vânt Presiune Umiditate
    00:00 -1°C° 0 mm 4 m/s 748 mmHg 82%
    01:00 0°C° 0 mm 3 m/s 748 mmHg 83%
    02:00 -1°C° 0 mm 3 m/s 749 mmHg 83%
    03:00 -1°C° 0 mm 3 m/s 749 mmHg 84%
    04:00 -1°C° 0 mm 3 m/s 749 mmHg 84%
    05:00 -1°C° 0 mm 2 m/s 749 mmHg 84%
    06:00 -1°C° 0 mm 2 m/s 749 mmHg 84%
    07:00 -1°C° 0 mm 2 m/s 749 mmHg 84%
    08:00 -1°C° 0 mm 2 m/s 749 mmHg 83%
    09:00 -1°C° 0 mm 2 m/s 750 mmHg 83%
    10:00 +1°C° 0 mm 3 m/s 749 mmHg 79%
    11:00 +2°C° 0 mm 3 m/s 749 mmHg 75%
    12:00 +4°C° 0 mm 4 m/s 749 mmHg 71%
    13:00 +4°C° 0 mm 3 m/s 749 mmHg 72%
    14:00 +4°C° 0 mm 3 m/s 748 mmHg 72%
    15:00 +5°C° 0 mm 2 m/s 748 mmHg 73%
    16:00 +4°C° 0 mm 2 m/s 748 mmHg 76%
    17:00 +4°C° 0 mm 1 m/s 748 mmHg 79%
    18:00 +3°C° 0 mm 1 m/s 748 mmHg 83%
    19:00 +2°C° 0 mm 1 m/s 748 mmHg 84%
    20:00 +2°C° 0 mm 1 m/s 749 mmHg 85%
    21:00 +2°C° 0 mm 1 m/s 749 mmHg 86%
    22:00 +2°C° 0 mm 1 m/s 749 mmHg 87%
    23:00 +1°C° 0 mm 2 m/s 749 mmHg 88%
    Arată mai mult